Time,TemperatureF,DewpointF,PressureIn,WindDirection,WindDirectionDegrees,WindSpeedMPH,WindSpeedGustMPH,Humidity,HourlyPrecipIn,Conditions,Clouds,dailyrainin,SoftwareType,DateUTC
2013-03-22 00:00:00,32.1,28.4,29.75,ESE,113,3.0,3.0,86,0.00,,,0.00,Wunderground v.1.15,2013-03-22 03:00:00,
2013-03-22 00:10:00,31.8,28.4,29.73,NNW,333,1.0,22.0,87,0.00,,,0.00,Wunderground v.1.15,2013-03-22 03:10:00,
2013-03-22 00:20:00,31.5,28.4,29.71,NNW,330,1.0,22.0,88,0.00,,,0.00,Wunderground v.1.15,2013-03-22 03:20:00,
2013-03-22 00:30:00,31.4,28.3,29.70,NW,316,2.0,2.0,88,0.00,,,0.00,Wunderground v.1.15,2013-03-22 03:30:00,
2013-03-22 00:40:00,31.2,28.3,29.70,NW,305,2.0,2.0,89,0.00,,,0.00,Wunderground v.1.15,2013-03-22 03:40:00,
2013-03-22 00:50:00,30.8,28.5,29.69,NW,312,1.0,22.0,91,0.00,,,0.00,Wunderground v.1.15,2013-03-22 03:50:00,
2013-03-22 01:00:00,30.3,28.3,29.68,NNW,329,4.0,22.0,92,0.00,,,0.00,Wunderground v.1.15,2013-03-22 04:00:00,
2013-03-22 01:10:00,30.0,28.2,29.67,North,1,4.0,22.0,93,0.00,,,0.00,Wunderground v.1.15,2013-03-22 04:10:00,
2013-03-22 01:20:00,29.8,28.3,29.66,NW,321,5.0,5.0,94,0.00,,,0.00,Wunderground v.1.15,2013-03-22 04:20:00,
2013-03-22 01:30:00,29.7,28.4,29.65,North,358,5.0,5.0,95,0.00,,,0.00,Wunderground v.1.15,2013-03-22 04:30:00,
2013-03-22 01:40:00,29.6,28.3,29.65,NNW,340,6.0,22.0,95,0.00,,,0.00,Wunderground v.1.15,2013-03-22 04:40:00,
2013-03-22 01:50:00,29.4,28.1,29.64,NNW,327,5.0,22.0,95,0.00,,,0.00,Wunderground v.1.15,2013-03-22 04:50:00,
2013-03-22 02:00:00,29.3,28.0,29.63,NW,326,6.0,22.0,95,0.00,,,0.00,Wunderground v.1.15,2013-03-22 05:00:00,
2013-03-22 02:10:00,29.2,27.9,29.62,NW,313,6.0,6.0,95,0.00,,,0.00,Wunderground v.1.15,2013-03-22 05:10:00,
2013-03-22 02:20:00,29.1,27.8,29.62,NNW,336,6.0,6.0,95,0.00,,,0.00,Wunderground v.1.15,2013-03-22 05:20:00,
2013-03-22 02:30:00,29.1,28.1,29.61,NW,313,6.0,22.0,96,0.00,,,0.00,Wunderground v.1.15,2013-03-22 05:30:00,
2013-03-22 02:40:00,29.2,28.2,29.60,NNW,328,7.0,22.0,96,0.00,,,0.00,Wunderground v.1.15,2013-03-22 05:40:00,
2013-03-22 02:50:00,29.2,28.2,29.59,North,353,7.0,22.0,96,0.00,,,0.00,Wunderground v.1.15,2013-03-22 05:50:00,
2013-03-22 03:00:00,29.2,28.2,29.57,NNW,334,7.0,22.0,96,0.00,,,0.00,Wunderground v.1.15,2013-03-22 06:00:00,
2013-03-22 03:10:00,29.1,28.1,29.56,NNW,341,7.0,7.0,96,0.00,,,0.00,Wunderground v.1.15,2013-03-22 06:10:00,
2013-03-22 03:20:00,28.9,27.9,29.55,NW,323,9.0,22.0,96,0.00,,,0.00,Wunderground v.1.15,2013-03-22 06:20:00,
2013-03-22 03:30:00,28.7,27.7,29.55,NW,306,8.0,22.0,96,0.00,,,0.00,Wunderground v.1.15,2013-03-22 06:30:00,
2013-03-22 03:40:00,28.6,27.6,29.54,North,359,7.0,7.0,96,0.00,,,0.00,Wunderground v.1.15,2013-03-22 06:40:00,
2013-03-22 03:50:00,28.5,27.5,29.53,NW,317,7.0,22.0,96,0.00,,,0.00,Wunderground v.1.15,2013-03-22 06:50:00,
2013-03-22 04:00:00,28.4,27.4,29.51,NNE,15,6.0,22.0,96,0.00,,,0.00,Wunderground v.1.15,2013-03-22 07:00:00,
2013-03-22 04:10:00,28.4,27.4,29.51,WSW,256,7.0,7.0,96,0.00,,,0.00,Wunderground v.1.15,2013-03-22 07:10:00,
2013-03-22 04:20:00,28.4,27.4,29.49,North,360,6.0,22.0,96,0.00,,,0.00,Wunderground v.1.15,2013-03-22 07:20:00,
2013-03-22 04:30:00,28.4,27.4,29.49,WSW,250,6.0,22.0,96,0.00,,,0.00,Wunderground v.1.15,2013-03-22 07:30:00,
2013-03-22 04:40:00,28.3,27.3,29.48,NW,310,5.0,22.0,96,0.00,,,0.00,Wunderground v.1.15,2013-03-22 07:40:00,
2013-03-22 04:50:00,28.3,27.3,29.47,West,269,6.0,6.0,96,0.00,,,0.00,Wunderground v.1.15,2013-03-22 07:50:00,
2013-03-22 05:00:00,28.3,27.3,29.46,NNW,332,6.0,6.0,96,0.00,,,0.00,Wunderground v.1.15,2013-03-22 08:00:00,
2013-03-22 05:10:00,28.3,27.3,29.45,NW,323,6.0,6.0,96,0.00,,,0.00,Wunderground v.1.15,2013-03-22 08:10:00,
2013-03-22 05:20:00,28.3,27.3,29.45,West,271,6.0,6.0,96,0.00,,,0.00,Wunderground v.1.15,2013-03-22 08:20:00,
2013-03-22 05:30:00,28.3,27.3,29.45,WNW,290,6.0,6.0,96,0.00,,,0.00,Wunderground v.1.15,2013-03-22 08:30:00,
2013-03-22 05:40:00,28.3,27.3,29.44,NW,321,5.0,22.0,96,0.00,,,0.00,Wunderground v.1.15,2013-03-22 08:40:00,
2013-03-22 05:50:00,28.3,27.3,29.43,NW,322,6.0,22.0,96,0.00,,,0.00,Wunderground v.1.15,2013-03-22 08:50:00,
2013-03-22 06:00:00,28.3,27.3,29.43,WNW,288,5.0,22.0,96,0.00,,,0.00,Wunderground v.1.15,2013-03-22 09:00:00,
2013-03-22 06:10:00,28.3,27.3,29.42,West,266,6.0,6.0,96,0.00,,,0.00,Wunderground v.1.15,2013-03-22 09:10:00,
2013-03-22 06:20:00,28.4,27.4,29.42,WNW,301,5.0,22.0,96,0.00,,,0.00,Wunderground v.1.15,2013-03-22 09:20:00,
2013-03-22 06:30:00,28.5,27.8,29.42,NNE,25,5.0,22.0,97,0.00,,,0.00,Wunderground v.1.15,2013-03-22 09:30:00,
2013-03-22 06:40:00,28.5,27.8,29.42,NW,306,5.0,22.0,97,0.00,,,0.00,Wunderground v.1.15,2013-03-22 09:40:00,
2013-03-22 06:50:00,28.5,27.8,29.42,WNW,293,5.0,22.0,97,0.00,,,0.00,Wunderground v.1.15,2013-03-22 09:50:00,
2013-03-22 07:00:00,28.5,27.8,29.41,WNW,286,4.0,4.0,97,0.00,,,0.00,Wunderground v.1.15,2013-03-22 10:00:00,
2013-03-22 07:10:00,28.6,27.9,29.41,NNE,16,4.0,22.0,97,0.00,,,0.00,Wunderground v.1.15,2013-03-22 10:10:00,
2013-03-22 07:20:00,28.6,27.9,29.41,WNW,302,4.0,22.0,97,0.00,,,0.00,Wunderground v.1.15,2013-03-22 10:20:00,
2013-03-22 07:30:00,28.6,27.9,29.41,NW,316,5.0,22.0,97,0.00,,,0.00,Wunderground v.1.15,2013-03-22 10:30:00,
2013-03-22 07:40:00,28.7,28.0,29.40,North,350,5.0,5.0,97,0.00,,,0.00,Wunderground v.1.15,2013-03-22 10:40:00,
2013-03-22 07:50:00,28.8,28.1,29.40,NW,326,5.0,22.0,97,0.00,,,0.00,Wunderground v.1.15,2013-03-22 10:50:00,
2013-03-22 08:00:00,28.9,28.2,29.40,North,359,5.0,22.0,97,0.00,,,0.00,Wunderground v.1.15,2013-03-22 11:00:00,
2013-03-22 08:10:00,28.9,28.2,29.40,NW,315,6.0,6.0,97,0.00,,,0.00,Wunderground v.1.15,2013-03-22 11:10:00,
2013-03-22 08:20:00,29.0,28.3,29.39,West,266,4.0,4.0,97,0.00,,,0.00,Wunderground v.1.15,2013-03-22 11:20:00,
2013-03-22 08:30:00,29.0,28.3,29.39,West,273,4.0,22.0,97,0.00,,,0.00,Wunderground v.1.15,2013-03-22 11:30:00,
2013-03-22 08:40:00,29.1,28.4,29.39,West,264,5.0,22.0,97,0.00,,,0.00,Wunderground v.1.15,2013-03-22 11:40:00,
2013-03-22 08:50:00,29.1,28.4,29.38,WSW,252,5.0,5.0,97,0.00,,,0.00,Wunderground v.1.15,2013-03-22 11:50:00,
2013-03-22 09:00:00,29.2,28.5,29.38,NW,304,5.0,22.0,97,0.00,,,0.00,Wunderground v.1.15,2013-03-22 12:00:00,
2013-03-22 09:10:00,29.3,28.6,29.38,WNW,288,5.0,5.0,97,0.00,,,0.00,Wunderground v.1.15,2013-03-22 12:10:00,
2013-03-22 09:20:00,29.4,28.7,29.38,WSW,257,5.0,5.0,97,0.00,,,0.00,Wunderground v.1.15,2013-03-22 12:20:00,
2013-03-22 09:30:00,29.5,28.5,29.38,NW,316,6.0,22.0,96,0.00,,,0.00,Wunderground v.1.15,2013-03-22 12:30:00,
2013-03-22 09:40:00,29.6,28.6,29.38,NNW,335,6.0,22.0,96,0.00,,,0.00,Wunderground v.1.15,2013-03-22 12:40:00,
2013-03-22 09:50:00,29.7,29.0,29.38,West,277,4.0,22.0,97,0.00,,,0.00,Wunderground v.1.15,2013-03-22 12:50:00,
2013-03-22 10:00:00,29.6,28.6,29.38,West,269,6.0,6.0,96,0.00,,,0.00,Wunderground v.1.15,2013-03-22 13:00:00,
2013-03-22 10:10:00,29.6,28.6,29.38,West,266,6.0,6.0,96,0.00,,,0.00,Wunderground v.1.15,2013-03-22 13:10:00,
2013-03-22 10:20:00,29.8,29.1,29.39,WNW,287,5.0,22.0,97,0.00,,,0.00,Wunderground v.1.15,2013-03-22 13:20:00,
2013-03-22 10:30:00,29.9,29.2,29.39,SW,227,4.0,22.0,97,0.00,,,0.00,Wunderground v.1.15,2013-03-22 13:30:00,
2013-03-22 10:40:00,30.1,29.1,29.39,WNW,282,4.0,4.0,96,0.00,,,0.00,Wunderground v.1.15,2013-03-22 13:40:00,
2013-03-22 10:50:00,30.3,29.3,29.38,WNW,285,4.0,4.0,96,0.00,,,0.00,Wunderground v.1.15,2013-03-22 13:50:00,
2013-03-22 11:00:00,30.5,29.5,29.39,WNW,282,4.0,22.0,96,0.00,,,0.00,Wunderground v.1.15,2013-03-22 14:00:00,
2013-03-22 11:10:00,30.6,29.6,29.39,WSW,255,5.0,22.0,96,0.00,,,0.00,Wunderground v.1.15,2013-03-22 14:10:00,
2013-03-22 11:20:00,30.7,29.7,29.39,West,259,6.0,6.0,96,0.00,,,0.00,Wunderground v.1.15,2013-03-22 14:20:00,
2013-03-22 11:30:00,30.8,29.8,29.40,WSW,250,5.0,22.0,96,0.00,,,0.00,Wunderground v.1.15,2013-03-22 14:30:00,
2013-03-22 11:40:00,30.9,29.9,29.40,West,260,6.0,22.0,96,0.00,,,0.00,Wunderground v.1.15,2013-03-22 14:40:00,
2013-03-22 11:50:00,31.1,30.1,29.40,West,275,5.0,22.0,96,0.00,,,0.00,Wunderground v.1.15,2013-03-22 14:50:00,
2013-03-22 12:00:00,31.3,30.3,29.40,SW,214,6.0,22.0,96,0.00,,,0.00,Wunderground v.1.15,2013-03-22 15:00:00,
2013-03-22 12:10:00,31.3,30.3,29.40,WSW,240,6.0,22.0,96,0.00,,,0.00,Wunderground v.1.15,2013-03-22 15:10:00,
2013-03-22 12:20:00,31.2,30.2,29.40,WNW,283,6.0,22.0,96,0.00,,,0.00,Wunderground v.1.15,2013-03-22 15:20:00,